Location: Bou Ouachlou
(32.7770°N, 5.6009°W)
Time: 12:11:45
(UTC+00:00)

Cosmos 1295 Rocket - Pass Details

Date: 07 June 2020
Orbit: 943 x 995 km, 82.9° (Epoch: 01 July)

Event Time Altitude Azimuth Distance (km) Brightness Sun altitude
Exits shadow 02:32:33 62° 189° (S) 1,108 4.4 -26.2°
Maximum altitude 02:33:45 88° 273° (W) 995 4.4 -26.1°
Drops below altitude 10° 02:40:04 10° 5° (N) 2,742 7.6 -25.3°
Sets 02:42:35 0° 6° (N) 3,686 8.5 -25.0°
